RYR76 LIBD-LEVC

Flight info

Callsign RYR76
Flight time 2h 17m
Altitude 37000
Route TOPNO L995 DOGUS DCT BATOX DCT GOKMI DCT SUPUX DCT KUPIM DCT SUXER DCT RIPAL DCT MORSS M603 CDP N733 VLC
Aircraft B738/M-SDE2E3FGHIRWXY/LB1

Departure

Time 2026-05-07 16:49
Airport Bari Karol Wojtyła International Airport (LIBD)

Arrival

Time 2026-05-07 19:06
Airport Valencia Airport (LEVC)
Time Latitude Longitude Altitude Speed Heading
2026-05-07 16:21 41.13527 16.76344 158 ft 0 kts 159°
2026-05-07 16:42 41.13542 16.76337 158 ft 3 kts 159°
2026-05-07 16:42 41.13563 16.76326 158 ft 2 kts 159°
2026-05-07 16:42 41.13582 16.76319 158 ft 3 kts 189°
2026-05-07 16:42 41.13598 16.76331 158 ft 3 kts 240°
2026-05-07 16:43 41.13605 16.76353 158 ft 1 kts 250°
2026-05-07 16:43 41.13607 16.76357 158 ft 0 kts 250°
2026-05-07 16:45 41.13606 16.76356 158 ft 1 kts 250°
2026-05-07 16:45 41.13589 16.76295 158 ft 14 kts 250°
2026-05-07 16:45 41.13554 16.76164 158 ft 11 kts 258°
2026-05-07 16:45 41.13598 16.76068 157 ft 16 kts 318°
2026-05-07 16:46 41.13624 16.75919 157 ft 21 kts 250°
2026-05-07 16:46 41.13569 16.75723 157 ft 25 kts 250°
2026-05-07 16:46 41.13502 16.75492 157 ft 29 kts 249°
2026-05-07 16:46 41.13426 16.75230 157 ft 32 kts 251°
2026-05-07 16:47 41.13348 16.74939 157 ft 35 kts 250°
2026-05-07 16:47 41.13258 16.74630 157 ft 36 kts 248°
2026-05-07 16:47 41.13185 16.74378 157 ft 22 kts 250°
2026-05-07 16:47 41.13184 16.74205 155 ft 17 kts 297°
2026-05-07 16:48 41.13269 16.74109 147 ft 19 kts
2026-05-07 16:48 41.13338 16.74243 149 ft 18 kts 72°
2026-05-07 16:48 41.13382 16.74401 149 ft 18 kts 70°
2026-05-07 16:48 41.13468 16.74707 148 ft 73 kts 70°
2026-05-07 16:49 41.13746 16.75674 152 ft 149 kts 70°
2026-05-07 16:49 41.14131 16.77151 595 ft 181 kts 77°
2026-05-07 16:49 41.14573 16.78753 1646 ft 184 kts 75°
2026-05-07 16:49 41.15041 16.80422 2367 ft 209 kts 72°
2026-05-07 16:50 41.15603 16.82329 2633 ft 233 kts 72°
2026-05-07 16:50 41.16194 16.84368 3204 ft 238 kts 72°
2026-05-07 16:50 41.16800 16.86471 3618 ft 255 kts 72°
2026-05-07 16:50 41.17476 16.88812 3836 ft 282 kts 71°
2026-05-07 16:51 41.18175 16.91278 4631 ft 285 kts 71°
2026-05-07 16:51 41.18690 16.93753 5722 ft 274 kts 84°
2026-05-07 16:51 41.18803 16.96272 6568 ft 274 kts 93°
2026-05-07 16:51 41.18739 16.98804 7332 ft 275 kts 95°
2026-05-07 16:52 41.18454 17.01296 7895 ft 282 kts 115°
2026-05-07 16:52 41.17300 17.03347 8609 ft 275 kts 141°
2026-05-07 16:52 41.15889 17.05048 9461 ft 276 kts 140°
2026-05-07 16:52 41.14466 17.06808 10045 ft 286 kts 140°
2026-05-07 16:53 41.12902 17.08487 10460 ft 296 kts 154°
2026-05-07 16:53 41.10895 17.09261 10735 ft 308 kts 181°
2026-05-07 16:53 41.08775 17.08690 11026 ft 320 kts 208°
2026-05-07 16:53 41.07004 17.06845 11470 ft 329 kts 227°
2026-05-07 16:54 41.05520 17.04547 12363 ft 322 kts 229°
2026-05-07 16:54 41.04073 17.02312 13246 ft 324 kts 234°
2026-05-07 16:54 41.03022 16.99592 13517 ft 341 kts 252°
2026-05-07 16:54 41.02573 16.96435 13796 ft 357 kts 262°
2026-05-07 16:55 41.02291 16.93117 14148 ft 367 kts 263°
2026-05-07 16:55 41.02041 16.89716 14585 ft 374 kts 263°
2026-05-07 16:55 41.01791 16.86277 15214 ft 375 kts 263°
2026-05-07 16:55 41.01533 16.82880 15820 ft 376 kts 263°
2026-05-07 16:56 41.01258 16.79427 16424 ft 378 kts 263°
2026-05-07 16:56 41.00972 16.75956 16992 ft 380 kts 262°
2026-05-07 16:56 41.00376 16.68956 18119 ft 385 kts 262°
2026-05-07 16:57 41.00071 16.65430 18595 ft 387 kts 262°
2026-05-07 16:57 40.99761 16.61868 19037 ft 390 kts 262°
2026-05-07 16:57 40.99449 16.58287 19460 ft 393 kts 262°
2026-05-07 16:57 40.99193 16.54665 19871 ft 398 kts 264°
2026-05-07 16:58 40.99049 16.50990 20265 ft 402 kts 266°
2026-05-07 16:58 40.98953 16.47322 20692 ft 405 kts 266°
2026-05-07 16:58 40.98866 16.43577 21122 ft 407 kts 266°
2026-05-07 16:58 40.98775 16.39816 21506 ft 410 kts 266°
2026-05-07 16:59 40.98674 16.36031 21910 ft 413 kts 266°
2026-05-07 16:59 40.98565 16.32220 22319 ft 415 kts 266°
2026-05-07 16:59 40.98447 16.28396 22713 ft 418 kts 266°
2026-05-07 16:59 40.98324 16.24539 23095 ft 420 kts 266°
2026-05-07 17:00 40.98196 16.20664 23474 ft 422 kts 266°
2026-05-07 17:00 40.98065 16.16775 23825 ft 424 kts 265°
2026-05-07 17:00 40.97932 16.12869 24169 ft 425 kts 265°
2026-05-07 17:00 40.97799 16.08963 24554 ft 425 kts 265°
2026-05-07 17:01 40.97663 16.05052 24913 ft 426 kts 265°
2026-05-07 17:01 40.97526 16.01134 25245 ft 427 kts 265°
2026-05-07 17:01 40.97387 15.97205 25561 ft 428 kts 265°
2026-05-07 17:01 40.97246 15.93265 25876 ft 429 kts 265°
2026-05-07 17:02 40.97104 15.89315 26195 ft 430 kts 265°
2026-05-07 17:02 40.96962 15.85404 26494 ft 432 kts 265°
2026-05-07 17:02 40.96816 15.81431 26782 ft 433 kts 266°
2026-05-07 17:02 40.96667 15.77391 27067 ft 434 kts 266°
2026-05-07 17:03 40.96519 15.73448 27314 ft 436 kts 265°
2026-05-07 17:03 40.96368 15.69431 27592 ft 437 kts 265°
2026-05-07 17:03 40.96215 15.65405 27866 ft 438 kts 266°
2026-05-07 17:03 40.96060 15.61370 28127 ft 439 kts 265°
2026-05-07 17:04 40.95904 15.57342 28525 ft 437 kts 265°
2026-05-07 17:04 40.95747 15.53339 28932 ft 435 kts 265°
2026-05-07 17:04 40.95590 15.49347 29312 ft 434 kts 265°
2026-05-07 17:04 40.95431 15.45365 29708 ft 432 kts 265°
2026-05-07 17:05 40.95272 15.41397 30061 ft 432 kts 265°
2026-05-07 17:05 40.95112 15.37435 30354 ft 431 kts 265°
2026-05-07 17:05 40.94950 15.33477 30641 ft 430 kts 265°
2026-05-07 17:05 40.94787 15.29528 30976 ft 429 kts 265°
2026-05-07 17:06 40.94624 15.25600 31297 ft 427 kts 265°
2026-05-07 17:06 40.94463 15.21740 31631 ft 425 kts 265°
2026-05-07 17:06 40.94298 15.17846 31939 ft 423 kts 265°
2026-05-07 17:06 40.94131 15.13918 32252 ft 422 kts 265°
2026-05-07 17:07 40.93967 15.10091 32551 ft 421 kts 265°
2026-05-07 17:07 40.93800 15.06236 32869 ft 419 kts 265°
2026-05-07 17:07 40.93633 15.02391 33177 ft 417 kts 265°
2026-05-07 17:07 40.93465 14.98564 33456 ft 416 kts 264°
2026-05-07 17:08 40.93296 14.94747 33761 ft 415 kts 264°
2026-05-07 17:08 40.93126 14.90942 34053 ft 414 kts 265°
2026-05-07 17:08 40.92956 14.87153 34319 ft 412 kts 265°
2026-05-07 17:08 40.92785 14.83378 34581 ft 410 kts 265°
2026-05-07 17:09 40.92615 14.79624 34842 ft 408 kts 265°
2026-05-07 17:09 40.92443 14.75887 35116 ft 406 kts 265°
2026-05-07 17:09 40.92271 14.72173 35347 ft 404 kts 264°
2026-05-07 17:09 40.92098 14.68471 35601 ft 402 kts 265°
2026-05-07 17:10 40.91926 14.64785 35841 ft 400 kts 264°
2026-05-07 17:10 40.91754 14.61134 36148 ft 396 kts 264°
2026-05-07 17:10 40.91583 14.57521 36538 ft 391 kts 264°
2026-05-07 17:10 40.91413 14.53959 36904 ft 387 kts 264°
2026-05-07 17:11 40.91069 14.46827 36907 ft 388 kts 264°
2026-05-07 17:11 40.90725 14.39797 36913 ft 383 kts 264°
2026-05-07 17:12 40.90378 14.32786 36916 ft 381 kts 264°
2026-05-07 17:12 40.90029 14.25821 36914 ft 379 kts 264°
2026-05-07 17:13 40.89678 14.18892 36917 ft 377 kts 264°
2026-05-07 17:13 40.89322 14.11974 36920 ft 377 kts 264°
2026-05-07 17:14 40.88962 14.05041 36920 ft 378 kts 264°
2026-05-07 17:14 40.88597 13.98090 36922 ft 380 kts 263°
2026-05-07 17:15 40.88227 13.91121 36928 ft 381 kts 263°
2026-05-07 17:15 40.87854 13.84183 36918 ft 382 kts 263°
2026-05-07 17:16 40.87473 13.77171 36931 ft 382 kts 263°
2026-05-07 17:16 40.87088 13.70158 36931 ft 383 kts 263°
2026-05-07 17:17 40.86697 13.63135 36928 ft 383 kts 263°
2026-05-07 17:17 40.86303 13.56113 36934 ft 383 kts 263°
2026-05-07 17:18 40.85905 13.49098 36930 ft 382 kts 263°
2026-05-07 17:18 40.85506 13.42139 36929 ft 382 kts 263°
2026-05-07 17:19 40.85101 13.35155 36936 ft 381 kts 263°
2026-05-07 17:19 40.84692 13.28185 36929 ft 380 kts 262°
2026-05-07 17:20 40.84281 13.21248 36934 ft 378 kts 262°
2026-05-07 17:20 40.83867 13.14327 36933 ft 378 kts 262°
2026-05-07 17:21 40.83450 13.07425 36937 ft 377 kts 262°
2026-05-07 17:21 40.83029 13.00528 36935 ft 377 kts 262°
2026-05-07 17:22 40.82604 12.93633 36942 ft 377 kts 262°
2026-05-07 17:22 40.82174 12.86733 36935 ft 377 kts 262°
2026-05-07 17:23 40.81740 12.79824 36937 ft 378 kts 262°
2026-05-07 17:23 40.81303 12.72943 36931 ft 379 kts 262°
2026-05-07 17:24 40.80931 12.67131 36942 ft 380 kts 262°
2026-05-07 17:24 40.80482 12.60178 36934 ft 381 kts 262°
2026-05-07 17:25 40.79954 12.52073 36940 ft 382 kts 262°
2026-05-07 17:25 40.79568 12.46212 36939 ft 383 kts 262°
2026-05-07 17:26 40.79103 12.39205 36938 ft 384 kts 262°
2026-05-07 17:26 40.78635 12.32228 36937 ft 384 kts 262°
2026-05-07 17:27 40.78160 12.25194 36941 ft 385 kts 262°
2026-05-07 17:27 40.77679 12.18153 36938 ft 385 kts 262°
2026-05-07 17:28 40.77194 12.11109 36940 ft 386 kts 262°
2026-05-07 17:28 40.76704 12.04053 36938 ft 386 kts 262°
2026-05-07 17:29 40.76210 11.97005 36936 ft 386 kts 262°
2026-05-07 17:29 40.75712 11.89960 36940 ft 386 kts 262°
2026-05-07 17:30 40.75208 11.82900 36941 ft 386 kts 262°
2026-05-07 17:30 40.74701 11.75857 36939 ft 386 kts 262°
2026-05-07 17:31 40.74190 11.68809 36944 ft 386 kts 262°
2026-05-07 17:31 40.73675 11.61772 36945 ft 386 kts 261°
2026-05-07 17:32 40.73155 11.54727 36948 ft 386 kts 261°
2026-05-07 17:32 40.72634 11.47731 36944 ft 386 kts 261°
2026-05-07 17:33 40.72105 11.40686 36945 ft 386 kts 261°
2026-05-07 17:33 40.71572 11.33644 36943 ft 386 kts 261°
2026-05-07 17:34 40.71040 11.26648 36928 ft 377 kts 261°
2026-05-07 17:34 40.70520 11.19860 36929 ft 370 kts 261°
2026-05-07 17:35 40.69997 11.13131 36938 ft 368 kts 261°
2026-05-07 17:35 40.69473 11.06432 36947 ft 368 kts 261°
2026-05-07 17:36 40.68944 10.99715 36952 ft 369 kts 261°
2026-05-07 17:36 40.68411 10.93010 36954 ft 372 kts 261°
2026-05-07 17:37 40.67868 10.86208 36960 ft 375 kts 261°
2026-05-07 17:37 40.67316 10.79351 36958 ft 378 kts 261°
2026-05-07 17:38 40.66754 10.72428 36958 ft 381 kts 261°
2026-05-07 17:38 40.66185 10.65455 36956 ft 384 kts 261°
2026-05-07 17:39 40.65607 10.58435 36950 ft 386 kts 261°
2026-05-07 17:39 40.65023 10.51386 36950 ft 388 kts 261°
2026-05-07 17:40 40.64434 10.44322 36950 ft 388 kts 261°
2026-05-07 17:40 40.63840 10.37267 36955 ft 387 kts 261°
2026-05-07 17:41 40.63244 10.30232 36955 ft 386 kts 261°
2026-05-07 17:41 40.62650 10.23273 36955 ft 384 kts 261°
2026-05-07 17:42 40.62050 10.16292 36956 ft 383 kts 261°
2026-05-07 17:42 40.61447 10.09335 36956 ft 382 kts 261°
2026-05-07 17:43 40.60841 10.02397 36956 ft 381 kts 260°
2026-05-07 17:43 40.60233 9.95474 36958 ft 380 kts 260°
2026-05-07 17:44 40.59621 9.88560 36956 ft 381 kts 260°
2026-05-07 17:44 40.59004 9.81635 36959 ft 381 kts 260°
2026-05-07 17:45 40.58382 9.74704 36960 ft 382 kts 260°
2026-05-07 17:45 40.57754 9.67751 36957 ft 383 kts 260°
2026-05-07 17:46 40.57118 9.60775 36966 ft 384 kts 260°
2026-05-07 17:46 40.56483 9.53830 36959 ft 386 kts 260°
2026-05-07 17:47 40.55837 9.46819 36960 ft 387 kts 260°
2026-05-07 17:47 40.55182 9.39776 36970 ft 389 kts 260°
2026-05-07 17:48 40.54523 9.32709 36959 ft 390 kts 260°
2026-05-07 17:48 40.53857 9.25623 36946 ft 390 kts 260°
2026-05-07 17:49 40.53187 9.18547 36955 ft 390 kts 260°
2026-05-07 17:49 40.52513 9.11470 36945 ft 389 kts 260°
2026-05-07 17:50 40.51836 9.04420 36948 ft 388 kts 260°
2026-05-07 17:50 40.51157 8.97382 36947 ft 388 kts 259°
2026-05-07 17:51 40.50473 8.90348 36950 ft 388 kts 259°
2026-05-07 17:51 40.49786 8.83324 36932 ft 387 kts 259°
2026-05-07 17:52 40.49100 8.76350 36940 ft 387 kts 259°
2026-05-07 17:52 40.48446 8.69752 36944 ft 387 kts 259°
2026-05-07 17:53 40.47747 8.62741 36943 ft 387 kts 259°
2026-05-07 17:53 40.47043 8.55712 36935 ft 388 kts 259°
2026-05-07 17:54 40.46334 8.48686 36939 ft 388 kts 259°
2026-05-07 17:54 40.45625 8.41695 36945 ft 388 kts 259°
2026-05-07 17:55 40.44906 8.34653 36933 ft 389 kts 259°
2026-05-07 17:55 40.44183 8.27613 36941 ft 389 kts 259°
2026-05-07 17:56 40.43573 8.20555 36933 ft 390 kts 262°
2026-05-07 17:56 40.43216 8.13445 36937 ft 390 kts 263°
2026-05-07 17:57 40.42916 8.07544 36934 ft 390 kts 262°
2026-05-07 17:57 40.42430 7.99308 36933 ft 388 kts 259°
2026-05-07 17:58 40.41571 7.92328 36927 ft 387 kts 257°
2026-05-07 17:58 40.40656 7.85375 36931 ft 386 kts 257°
2026-05-07 17:59 40.39752 7.78429 36936 ft 386 kts 257°
2026-05-07 17:59 40.38854 7.71481 36933 ft 386 kts 257°
2026-05-07 18:00 40.37962 7.64587 36935 ft 386 kts 257°
2026-05-07 18:00 40.37062 7.57658 36936 ft 386 kts 257°
2026-05-07 18:01 40.36157 7.50725 36941 ft 386 kts 257°
2026-05-07 18:01 40.35247 7.43789 36939 ft 386 kts 257°
2026-05-07 18:02 40.33875 7.33381 36937 ft 386 kts 257°
2026-05-07 18:03 40.32956 7.26447 36941 ft 386 kts 257°
2026-05-07 18:03 40.32042 7.19508 36938 ft 386 kts 257°
2026-05-07 18:04 40.31124 7.12568 36940 ft 387 kts 256°
2026-05-07 18:04 40.30203 7.05629 36938 ft 387 kts 256°
2026-05-07 18:05 40.29276 6.98689 36940 ft 387 kts 256°
2026-05-07 18:05 40.28345 6.91745 36940 ft 387 kts 256°
2026-05-07 18:06 40.27415 6.84847 36937 ft 387 kts 256°
2026-05-07 18:06 40.26473 6.77895 36942 ft 387 kts 256°
2026-05-07 18:07 40.25528 6.70948 36939 ft 387 kts 256°
2026-05-07 18:07 40.24577 6.63994 36942 ft 388 kts 256°
2026-05-07 18:08 40.23624 6.57049 36943 ft 388 kts 256°
2026-05-07 18:08 40.22671 6.50145 36941 ft 388 kts 256°
2026-05-07 18:09 40.21707 6.43191 36940 ft 388 kts 255°
2026-05-07 18:09 40.20738 6.36229 36940 ft 389 kts 255°
2026-05-07 18:10 40.19763 6.29258 36940 ft 389 kts 255°
2026-05-07 18:10 40.18783 6.22287 36938 ft 390 kts 255°
2026-05-07 18:11 40.17964 6.16484 36939 ft 390 kts 255°
2026-05-07 18:11 40.16975 6.09500 36940 ft 391 kts 255°
2026-05-07 18:12 40.15979 6.02502 36940 ft 392 kts 255°
2026-05-07 18:12 40.14978 5.95497 36940 ft 392 kts 255°
2026-05-07 18:13 40.13971 5.88478 36936 ft 393 kts 255°
2026-05-07 18:13 40.12965 5.81442 36940 ft 394 kts 255°
2026-05-07 18:14 40.11979 5.74441 36944 ft 395 kts 255°
2026-05-07 18:14 40.10981 5.67376 36940 ft 395 kts 255°
2026-05-07 18:15 40.09976 5.60300 36937 ft 396 kts 255°
2026-05-07 18:15 40.08965 5.53220 36934 ft 397 kts 255°
2026-05-07 18:16 40.07948 5.46136 36944 ft 397 kts 255°
2026-05-07 18:16 40.06933 5.39093 36934 ft 397 kts 255°
2026-05-07 18:17 40.05904 5.31992 36940 ft 398 kts 255°
2026-05-07 18:17 40.04873 5.24902 36933 ft 398 kts 255°
2026-05-07 18:18 40.03835 5.17799 36932 ft 398 kts 255°
2026-05-07 18:18 40.02794 5.10706 36935 ft 398 kts 255°
2026-05-07 18:19 40.01749 5.03623 36936 ft 398 kts 255°
2026-05-07 18:19 40.00701 4.96538 36930 ft 398 kts 255°
2026-05-07 18:20 39.99647 4.89454 36931 ft 397 kts 255°
2026-05-07 18:20 39.98592 4.82381 36938 ft 397 kts 255°
2026-05-07 18:21 39.97484 4.75331 36929 ft 396 kts 252°
2026-05-07 18:21 39.96067 4.68408 36933 ft 395 kts 251°
2026-05-07 18:22 39.94632 4.61490 36935 ft 395 kts 251°
2026-05-07 18:22 39.93213 4.54573 36935 ft 395 kts 251°
2026-05-07 18:23 39.91791 4.47647 36944 ft 396 kts 251°
2026-05-07 18:23 39.90364 4.40718 36940 ft 396 kts 251°
2026-05-07 18:24 39.88940 4.33835 36942 ft 396 kts 251°
2026-05-07 18:24 39.87502 4.26900 36937 ft 396 kts 251°
2026-05-07 18:25 39.86060 4.19975 36942 ft 397 kts 251°
2026-05-07 18:25 39.84610 4.13043 36937 ft 397 kts 251°
2026-05-07 18:26 39.83156 4.06108 36941 ft 397 kts 251°
2026-05-07 18:26 39.81698 3.99176 36938 ft 397 kts 251°
2026-05-07 18:27 39.80237 3.92251 36935 ft 397 kts 251°
2026-05-07 18:27 39.78769 3.85316 36934 ft 398 kts 251°
2026-05-07 18:28 39.77297 3.78383 36934 ft 398 kts 251°
2026-05-07 18:28 39.75821 3.71452 36935 ft 398 kts 251°
2026-05-07 18:29 39.74347 3.64553 36931 ft 399 kts 251°
2026-05-07 18:29 39.72859 3.57608 36941 ft 399 kts 251°
2026-05-07 18:30 39.71365 3.50658 36940 ft 400 kts 251°
2026-05-07 18:30 39.69932 3.43661 36929 ft 402 kts 256°
2026-05-07 18:31 39.69476 3.36386 36943 ft 406 kts 263°
2026-05-07 18:31 39.69226 3.29057 36948 ft 406 kts 263°
2026-05-07 18:32 39.68953 3.21725 36944 ft 407 kts 263°
2026-05-07 18:32 39.68662 3.14379 36946 ft 407 kts 263°
2026-05-07 18:33 39.68485 3.10004 36942 ft 408 kts 263°
2026-05-07 18:33 39.68183 3.02651 36941 ft 408 kts 263°
2026-05-07 18:34 39.67876 2.95290 36943 ft 408 kts 263°
2026-05-07 18:34 39.67565 2.87940 36941 ft 408 kts 263°
2026-05-07 18:35 39.67250 2.80596 36941 ft 407 kts 263°
2026-05-07 18:35 39.66930 2.73259 36942 ft 407 kts 263°
2026-05-07 18:36 39.66607 2.65926 36944 ft 407 kts 263°
2026-05-07 18:36 39.66283 2.58602 36937 ft 406 kts 263°
2026-05-07 18:37 39.65982 2.51351 36938 ft 397 kts 263°
2026-05-07 18:37 39.65674 2.44237 36935 ft 393 kts 263°
2026-05-07 18:37 39.65512 2.40701 36753 ft 394 kts 263°
2026-05-07 18:38 39.65348 2.37217 36517 ft 388 kts 263°
2026-05-07 18:38 39.65185 2.33739 36095 ft 384 kts 263°
2026-05-07 18:38 39.65023 2.30305 35766 ft 379 kts 263°
2026-05-07 18:38 39.64861 2.26895 35368 ft 377 kts 263°
2026-05-07 18:39 39.64699 2.23509 34986 ft 374 kts 263°
2026-05-07 18:39 39.64538 2.20147 34606 ft 372 kts 263°
2026-05-07 18:39 39.64376 2.16804 34225 ft 370 kts 262°
2026-05-07 18:39 39.64214 2.13473 33817 ft 369 kts 262°
2026-05-07 18:40 39.64052 2.10157 33403 ft 367 kts 262°
2026-05-07 18:40 39.63891 2.06858 33004 ft 365 kts 262°
2026-05-07 18:40 39.63731 2.03626 32633 ft 362 kts 262°
2026-05-07 18:40 39.63570 2.00379 32267 ft 360 kts 262°
2026-05-07 18:41 39.63409 1.97149 31906 ft 357 kts 262°
2026-05-07 18:41 39.63248 1.93940 31544 ft 355 kts 262°
2026-05-07 18:41 39.63088 1.90753 31193 ft 353 kts 262°
2026-05-07 18:41 39.62927 1.87580 30847 ft 351 kts 262°
2026-05-07 18:42 39.62764 1.84400 30512 ft 356 kts 262°
2026-05-07 18:42 39.62593 1.81140 30141 ft 370 kts 262°
2026-05-07 18:42 39.62415 1.77752 29720 ft 379 kts 262°
2026-05-07 18:42 39.62239 1.74347 29292 ft 377 kts 262°
2026-05-07 18:43 39.62066 1.70973 28889 ft 374 kts 262°
2026-05-07 18:43 39.61893 1.67622 28497 ft 371 kts 262°
2026-05-07 18:43 39.61719 1.64298 28119 ft 368 kts 262°
2026-05-07 18:43 39.61545 1.60998 27745 ft 365 kts 262°
2026-05-07 18:44 39.61371 1.57728 27383 ft 362 kts 262°
2026-05-07 18:44 39.61197 1.54479 27014 ft 360 kts 262°
2026-05-07 18:44 39.61025 1.51294 26659 ft 357 kts 262°
2026-05-07 18:44 39.60852 1.48090 26300 ft 355 kts 262°
2026-05-07 18:45 39.60679 1.44898 25945 ft 353 kts 262°
2026-05-07 18:45 39.60506 1.41732 25595 ft 351 kts 262°
2026-05-07 18:45 39.60332 1.38570 25237 ft 350 kts 262°
2026-05-07 18:45 39.60159 1.35425 24886 ft 348 kts 262°
2026-05-07 18:46 39.59986 1.32300 24535 ft 347 kts 262°
2026-05-07 18:46 39.59813 1.29184 24173 ft 346 kts 262°
2026-05-07 18:46 39.59640 1.26078 23822 ft 345 kts 262°
2026-05-07 18:46 39.59467 1.22977 23453 ft 345 kts 262°
2026-05-07 18:47 39.59293 1.19882 23062 ft 343 kts 262°
2026-05-07 18:47 39.59120 1.16809 22689 ft 341 kts 262°
2026-05-07 18:47 39.58947 1.13753 22328 ft 339 kts 262°
2026-05-07 18:47 39.58777 1.10758 21987 ft 336 kts 262°
2026-05-07 18:48 39.58605 1.07745 21643 ft 334 kts 263°
2026-05-07 18:48 39.58433 1.04749 21304 ft 331 kts 263°
2026-05-07 18:48 39.58261 1.01780 20976 ft 329 kts 263°
2026-05-07 18:48 39.58090 0.98830 20646 ft 327 kts 263°
2026-05-07 18:49 39.57920 0.95902 20316 ft 325 kts 263°
2026-05-07 18:49 39.57750 0.92994 19995 ft 323 kts 263°
2026-05-07 18:49 39.57580 0.90100 19664 ft 321 kts 263°
2026-05-07 18:49 39.57410 0.87220 19332 ft 319 kts 263°
2026-05-07 18:50 39.57241 0.84365 19008 ft 317 kts 263°
2026-05-07 18:50 39.57072 0.81520 18688 ft 316 kts 264°
2026-05-07 18:50 39.56903 0.78686 18373 ft 314 kts 264°
2026-05-07 18:50 39.56734 0.75867 18017 ft 313 kts 264°
2026-05-07 18:51 39.56565 0.73064 17658 ft 311 kts 264°
2026-05-07 18:51 39.56397 0.70274 17319 ft 309 kts 264°
2026-05-07 18:51 39.56232 0.67539 16995 ft 307 kts 264°
2026-05-07 18:51 39.56064 0.64785 16671 ft 305 kts 264°
2026-05-07 18:52 39.55897 0.62055 16355 ft 303 kts 265°
2026-05-07 18:52 39.55731 0.59338 16040 ft 301 kts 265°
2026-05-07 18:52 39.55565 0.56640 15727 ft 300 kts 265°
2026-05-07 18:52 39.55400 0.53951 15420 ft 298 kts 265°
2026-05-07 18:53 39.55236 0.51280 15111 ft 297 kts 265°
2026-05-07 18:53 39.55071 0.48614 14804 ft 296 kts 265°
2026-05-07 18:53 39.54907 0.45966 14498 ft 295 kts 266°
2026-05-07 18:53 39.54743 0.43323 14190 ft 294 kts 266°
2026-05-07 18:54 39.54579 0.40690 13891 ft 293 kts 266°
2026-05-07 18:54 39.54414 0.38058 13563 ft 292 kts 266°
2026-05-07 18:54 39.54250 0.35437 13228 ft 291 kts 266°
2026-05-07 18:54 39.54085 0.32825 12910 ft 290 kts 266°
2026-05-07 18:55 39.53920 0.30228 12601 ft 289 kts 266°
2026-05-07 18:55 39.53755 0.27650 12341 ft 286 kts 266°
2026-05-07 18:55 39.53588 0.25090 12042 ft 284 kts 266°
2026-05-07 18:55 39.53423 0.22547 11752 ft 283 kts 266°
2026-05-07 18:56 39.53151 0.20038 11397 ft 281 kts 256°
2026-05-07 18:56 39.52573 0.17608 10739 ft 287 kts 252°
2026-05-07 18:56 39.51878 0.15088 9789 ft 305 kts 251°
2026-05-07 18:56 39.51141 0.12460 8830 ft 316 kts 251°
2026-05-07 18:57 39.50412 0.09816 8538 ft 304 kts 251°
2026-05-07 18:57 39.49714 0.07237 7895 ft 305 kts 251°
2026-05-07 18:57 39.49255 0.05519 7471 ft 305 kts 251°
2026-05-07 18:57 39.48331 0.02028 6621 ft 307 kts 251°
2026-05-07 18:58 39.47655 -0.00548 6140 ft 302 kts 251°
2026-05-07 18:58 39.46989 -0.03089 5758 ft 294 kts 251°
2026-05-07 18:58 39.46549 -0.04768 5492 ft 289 kts 251°
2026-05-07 18:58 39.45911 -0.07208 5115 ft 283 kts 251°
2026-05-07 18:59 39.45286 -0.09596 4768 ft 277 kts 251°
2026-05-07 18:59 39.44673 -0.11936 4493 ft 273 kts 251°
2026-05-07 18:59 39.44477 -0.12687 4448 ft 270 kts 251°
2026-05-07 19:00 39.44357 -0.13144 4426 ft 268 kts 251°
2026-05-07 19:00 39.43966 -0.14635 4343 ft 264 kts 251°
2026-05-07 19:00 39.43385 -0.16853 4217 ft 256 kts 251°
2026-05-07 19:00 39.42821 -0.19002 4103 ft 249 kts 251°
2026-05-07 19:01 39.42273 -0.21088 3983 ft 242 kts 251°
2026-05-07 19:01 39.41735 -0.23133 3752 ft 236 kts 251°
2026-05-07 19:01 39.41221 -0.25085 3527 ft 223 kts 251°
2026-05-07 19:01 39.40945 -0.26980 3298 ft 209 kts 280°
2026-05-07 19:02 39.41506 -0.28594 3219 ft 189 kts 302°
2026-05-07 19:02 39.42104 -0.30082 3050 ft 179 kts 296°
2026-05-07 19:02 39.42619 -0.31471 2832 ft 170 kts 297°
2026-05-07 19:02 39.43135 -0.32846 2623 ft 171 kts 297°
2026-05-07 19:03 39.43660 -0.34237 2398 ft 172 kts 297°
2026-05-07 19:03 39.44166 -0.35576 2167 ft 162 kts 297°
2026-05-07 19:03 39.44649 -0.36854 1947 ft 154 kts 297°
2026-05-07 19:03 39.45106 -0.38064 1791 ft 149 kts 297°
2026-05-07 19:04 39.45568 -0.39285 1563 ft 151 kts 297°
2026-05-07 19:04 39.46033 -0.40520 1409 ft 152 kts 296°
2026-05-07 19:04 39.46496 -0.41758 1157 ft 156 kts 297°
2026-05-07 19:04 39.46968 -0.42986 938 ft 147 kts 297°
2026-05-07 19:05 39.47414 -0.44166 691 ft 145 kts 297°
2026-05-07 19:05 39.47855 -0.45332 471 ft 142 kts 297°
2026-05-07 19:05 39.48290 -0.46479 311 ft 142 kts 296°
2026-05-07 19:05 39.48719 -0.47602 213 ft 132 kts 297°
2026-05-07 19:06 39.49049 -0.48468 214 ft 75 kts 296°
2026-05-07 19:06 39.49381 -0.49213 216 ft 36 kts 321°
2026-05-07 19:06 39.49518 -0.49310 216 ft 16 kts 13°
2026-05-07 19:07 39.49546 -0.49248 208 ft 7 kts 111°
2026-05-07 19:07 39.49524 -0.49192 210 ft 7 kts 116°
2026-05-07 19:07 39.49501 -0.49132 210 ft 11 kts 116°
2026-05-07 19:07 39.49445 -0.48985 211 ft 26 kts 116°
2026-05-07 19:08 39.49343 -0.48716 210 ft 39 kts 116°
2026-05-07 19:08 39.49210 -0.48367 214 ft 45 kts 116°
2026-05-07 19:08 39.49099 -0.48067 214 ft 35 kts 115°
2026-05-07 19:08 39.49032 -0.47834 208 ft 24 kts 84°
2026-05-07 19:09 39.49065 -0.47631 214 ft 15 kts 82°
2026-05-07 19:09 39.49026 -0.47545 208 ft 9 kts 122°
2026-05-07 19:09 39.49032 -0.47480 211 ft 8 kts 49°
2026-05-07 19:09 39.49055 -0.47452 208 ft 2 kts 39°
2026-05-07 19:10 39.49064 -0.47443 209 ft 0 kts 39°